Weather History for Kahului, HI

Change the Weather History Date:

Thursday, October 3, 2013

  Actual Average Record
Temperature  
Mean Temperature 79 °F 79 °F  
Max Temperature 89 °F 88 °F 95 °F (1957)
Min Temperature 69 °F 70 °F 61 °F (1974)
Degree Days  
Heating Degree Days 0 0  
Month to date heating degree days 0 0  
Since 1 July heating degree days 0 0  
Cooling Degree Days 14 14  
Month to date cooling degree days 42 42  
Year to date cooling degree days 3290 3010  
Growing Degree Days 26 (Base 50)    
Moisture  
Dew Point 66 °F    
Average Humidity 65    
Maximum Humidity 84    
Minimum Humidity 46    
Precipitation  
Precipitation 0.01 in 0.03 in 0.64 in (1972)
Month to date precipitation 0.01 0.07  
Year to date precipitation 8.92 11.15  
Snow  
Snow 0.00 in - - ()
Month to date snowfall 0.0  
Since 1 July snowfall 0.0  
Since 1 September snowfall 0.0  
Snow Depth 0.00 in    
Sea Level Pressure  
Sea Level Pressure 29.96 in    
Wind  
Wind Speed 8 mph (East)    
Max Wind Speed 22 mph    
Max Gust Speed 29 mph    
Visibility 10 miles    
Events      
T = Trace of Precipitation, MM = Missing Value Source: NWS Daily Summary

Daily Weather History Graph

Daily Weather History Graph

Search for Another Location

Airport:

Trip Planner

Search our weather history database for the weather conditions in past years. The results will help you decide how hot, cold, wet, or windy it might be!

Date:

Astronomy

Oct. 03, 2013 Rise Set
Actual Time 6:17 AM HST 6:11 PM HST
Civil Twilight 5:55 AM HST 6:33 PM HST
Nautical Twilight 5:29 AM HST 6:59 PM HST
Astronomical Twilight 5:03 AM HST 7:24 PM HST
Moon 5:07 AM HST (10/3) 5:24 PM HST (10/3)
Length of Visible Light 12h 38m
Length of Day
11h 53m
Waning Crescent, 1% of the Moon is Illuminated
Oct 3
Waning Crescent
Oct 4
New
Oct 11
First Quarter
Oct 18
Full
Oct 26
Last Quarter

Hourly Weather History & Observations

Time (HST) Temp. Heat Index Dew Point Humidity Pressure Visibility Wind Dir Wind Speed Gust Speed Precip Events Conditions
12:54 AM 73.9 °F - 66.9 °F 79% 29.97 in 10.0 mi ESE 4.6 mph - N/A   Mostly Cloudy
1:54 AM 73.9 °F - 66.0 °F 76% 29.96 in 10.0 mi NNE 3.5 mph - N/A   Mostly Cloudy
2:54 AM 73.9 °F - 66.0 °F 76% 29.95 in 10.0 mi Calm Calm - N/A   Clear
3:54 AM 72.0 °F - 66.0 °F 81% 29.95 in 10.0 mi SE 8.1 mph - N/A   Clear
4:54 AM 72.0 °F - 66.0 °F 81% 29.95 in 10.0 mi SE 3.5 mph - N/A   Clear
5:54 AM 71.1 °F - 64.9 °F 81% 29.95 in 10.0 mi SSE 6.9 mph - N/A   Clear
6:54 AM 75.9 °F - 64.9 °F 69% 29.95 in 10.0 mi Calm Calm - N/A   Clear
7:54 AM 78.1 °F - 66.0 °F 66% 29.98 in 10.0 mi ESE 3.5 mph - 0.01 in   Partly Cloudy
8:54 AM 81.0 °F 83.0 °F 66.0 °F 60% 30.00 in 10.0 mi Calm Calm - N/A   Scattered Clouds
9:54 AM 86.0 °F 87.6 °F 64.9 °F 49% 29.99 in 10.0 mi Variable 4.6 mph - N/A   Scattered Clouds
10:54 AM 84.9 °F 86.6 °F 64.9 °F 51% 29.98 in 10.0 mi East 13.8 mph - N/A   Scattered Clouds
11:54 AM 88.0 °F 89.6 °F 64.9 °F 46% 29.96 in 10.0 mi East 17.3 mph 24.2 mph N/A   Scattered Clouds
12:54 PM 86.0 °F 88.2 °F 66.0 °F 51% 29.94 in 10.0 mi ENE 16.1 mph 24.2 mph N/A   Scattered Clouds
1:54 PM 84.9 °F 86.6 °F 64.9 °F 51% 29.92 in 10.0 mi ENE 17.3 mph 25.3 mph N/A   Scattered Clouds
2:54 PM 82.9 °F 85.4 °F 66.9 °F 58% 29.91 in 10.0 mi ENE 16.1 mph 25.3 mph N/A   Scattered Clouds
3:54 PM 81.0 °F 83.3 °F 66.9 °F 62% 29.91 in 10.0 mi ENE 16.1 mph 23.0 mph N/A   Scattered Clouds
4:54 PM 81.0 °F 83.3 °F 66.9 °F 62% 29.91 in 10.0 mi ENE 17.3 mph 26.5 mph N/A   Scattered Clouds
6:54 PM 79.0 °F - 63.0 °F 58% 29.94 in 10.0 mi ENE 16.1 mph - N/A   Scattered Clouds
7:54 PM 77.0 °F - 66.0 °F 69% 29.97 in 10.0 mi ESE 9.2 mph - N/A   Scattered Clouds
8:54 PM 75.9 °F - 66.0 °F 71% 29.98 in 10.0 mi ENE 9.2 mph - N/A   Clear
9:54 PM 75.9 °F - 64.0 °F 67% 30.00 in 10.0 mi East 5.8 mph - N/A   Scattered Clouds
10:54 PM 73.0 °F - 64.9 °F 76% 30.00 in 10.0 mi ESE 4.6 mph - N/A   Clear
11:54 PM 75.0 °F - 66.0 °F 73% 29.99 in 10.0 mi East 12.7 mph 20.7 mph N/A   Partly Cloudy